Location: Tel Aviv
(32.0670°N, 34.7670°E)
Time: 00:25:09
(UTC+02:00)

ISS - Visible Passes

Search period start: 02 December 2021 00:00
Search period end: 12 December 2021 00:00
Orbit: 417 x 423 km, 51.6° (Epoch: 01 December)

Date Brightness Start Highest point End Pass type
(mag) Time Alt. Az. Time Alt. Az. Time Alt. Az.
05 Dec -1.3 18:19:44 10° NNW 18:20:26 14° NNW 18:20:26 14° NNW visible
06 Dec -2.2 17:32:57 10° NNW 17:35:28 19° NE 17:35:52 19° NE visible
07 Dec -3.2 18:21:50 10° NW 18:24:42 57° W 18:24:42 57° W visible
08 Dec -3.8 17:34:37 10° NW 17:37:58 60° NE 17:40:59 12° ESE visible
09 Dec -0.8 18:24:59 10° W 18:27:17 17° SW 18:29:36 10° S visible
10 Dec -1.8 17:37:06 10° WNW 17:40:10 32° SW 17:43:13 10° SSE visible
